User: anonymous   Login
Location: Gairloch Mountain Observatory
(46.1383°N, 60.9640°W)
Time: 09:49:42
(UTC-04:00)
Language:

CENTAUR R/B - Orbit

View from above orbital plane
View from above orbital plane
View from above satellite
View from above satellite

Ground track
Ground track

The orbit data is extracted from the following two-line orbital elements,

1 26906U 01040B   16341.23360167 0.00000020  00000-0  24532-4 0    06
2 26906  63.4545 107.9061 0337000 342.7555  17.2445 13.43999238    04
Epoch (UTC): 06 December 2016 05:36:23
Eccentricity: 0.0337000
inclination: 63.4545°
perigee height: 842 km
apogee height: 1346 km
right ascension of ascending node: 107.9061°
argument of perigee: 342.7555°
revolutions per day: 13.43999238
mean anomaly at epoch: 17.2445°
orbit number at epoch: 0

The dashed part of the orbit path shows where the satellite is in the earth's shadow,  

DLR